Overview Statistics Trail Chart Weather Telemetry Raw packets
 

This is the latest recevied weather packets stored in our database for station/object K5SVV. If no packets are shown the sender has not sent any weather packets the latest 10 day(s).

<< 91 92 93 94 95 96 97 >>
Time Temp. Humidity Pressure Rain* Wind** Luminosity Snow
1788015621 30.56° C 64% 1017.4 hPa 0 mm - 517 W/m² -
1788015314 30° C 64% 1017.7 hPa 0 mm - 432 W/m² -
1788015014 29.44° C 66% 1017.5 hPa 0 mm - 446 W/m² -
1788014709 28.89° C 66% 1017.4 hPa 0 mm - 441 W/m² -
1788014404 28.89° C 67% 1017.5 hPa 0 mm - 420 W/m² -
1788014098 28.89° C 68% 1017.4 hPa 0 mm - 390 W/m² -
1788013796 28.89° C 69% 1017.6 hPa 0 mm - 364 W/m² -
1788013491 28.89° C 69% 1017.8 hPa 0 mm - 367 W/m² -
1788013186 28.33° C 70% 1017.5 hPa 0 mm - 336 W/m² -
1788012885 27.78° C 70% 1017.7 hPa 0 mm - 321 W/m² -
1788012580 27.78° C 70% 1017.7 hPa 0 mm - 287 W/m² -
1788012275 27.78° C 71% 1017.6 hPa 0 mm - 274 W/m² -
1788011974 27.78° C 71% 1017.5 hPa 0 mm - 255 W/m² -
1788011673 27.78° C 72% 1017.5 hPa 0 mm - 234 W/m² -
1788011368 27.78° C 72% 1017.7 hPa 0 mm - 207 W/m² -
1788011067 27.22° C 73% 1017.6 hPa 0 mm - 188 W/m² -
1788010758 27.22° C 73% 1017.3 hPa 0 mm - 175 W/m² -
1788010456 26.67° C 74% 1017.4 hPa 0 mm - 171 W/m² -
1788010150 26.67° C 75% 1017.6 hPa 0 mm - 142 W/m² -
1788009845 26.67° C 75% 1017.2 hPa 0 mm - 134 W/m² -
1788009542 26.11° C 76% 1017.2 hPa 0 mm - 123 W/m² -
1788009237 26.11° C 77% 1017.4 hPa 0 mm - 108 W/m² -
1788008932 25.56° C 77% 1017 hPa 0 mm - 92 W/m² -
1788008629 25.56° C 78% 1017.3 hPa 0 mm - 82 W/m² -
1788008326 25.56° C 79% 1017.2 hPa 0 mm - 65 W/m² -

* Rain latest hour (hover to see other rain measurements)
** Current wind speed in m/s (hover to see current wind gust speed)